Wind_Speed
9 8 8 8 6 6 7 8 9 10 13 14 14 14 14 14 15 15 15 14 13 13 13 14 14 14 14 14 13 13 13 13 14 14 15 14 14 14 14 14 14 16 17 17
8 8 7 6 5 6 7 9 10 10 11 13 14 15 14 13 14 15 14 14 14 14 14 14 13 13 13 12 12 12 12 13 13 14 14 13 12 12 13 13 14 15 16 16
9 8 6 6 6 8 8 9 12 12 12 13 14 14 14 14 14 14 14 13 13 13 12 11 11 10 10 11 12 11 11 12 12 12 12 12 12 12 12 12 13 14 15 16
9 8 5 6 7 9 9 10 11 11 12 13 14 13 14 14 13 13 13 13 12 11 10 9 9 9 8 9 9 9 10 10 10 11 11 11 10 10 11 12 13 14 15 16
9 8 7 8 9 10 10 10 11 11 12 12 11 11 11 12 12 12 12 12 10 9 8 8 7 7 7 7 7 7 8 8 9 10 9 8 8 9 11 12 13 14 14 16
8 8 8 8 9 9 9 10 10 11 12 11 11 10 10 11 11 10 10 10 9 8 7 7 6 6 5 5 6 6 7 7 8 8 7 7 8 9 10 12 13 14 15 16
8 8 9 8 9 10 10 9 10 11 11 11 11 11 11 10 10 9 9 9 8 6 6 6 6 5 5 5 6 6 6 6 6 7 7 7 8 9 10 12 13 14 15 16
9 9 10 9 10 10 10 10 11 10 11 11 10 9 10 9 9 9 9 8 8 7 6 6 5 5 4 5 5 5 5 6 6 7 7 8 9 9 10 12 13 15 16 17
9 10 10 10 10 10 10 10 10 10 10 10 9 9 9 8 8 8 8 7 6 6 6 5 5 5 5 5 5 5 5 6 7 7 8 9 10 11 11 13 14 15 16 17
10 10 9 11 10 9 10 10 9 10 10 9 8 8 8 7 6 7 7 7 6 5 5 5 5 5 4 5 5 5 5 6 7 7 8 9 10 11 12 13 14 15 17 17
10 10 11 11 10 10 10 10 9 9 9 8 7 8 8 7 6 6 6 7 6 6 5 5 5 4 4 4 4 5 5 6 7 8 9 9 10 11 12 13 14 16 17 18
11 11 11 10 10 10 10 10 10 9 8 8 8 8 7 7 6 6 6 6 6 6 5 4 4 4 4 4 4 5 6 6 7 8 9 9 10 11 12 14 15 17 18 19
12 11 11 11 11 11 11 10 10 8 7 7 8 8 7 7 7 7 6 5 6 5 5 3 3 4 5 5 5 6 6 7 8 8 9 10 11 12 13 14 15 17 18 19
12 11 11 11 11 12 11 10 9 8 7 7 8 8 8 8 8 7 6 6 6 6 5 4 4 4 5 6 6 6 7 7 7 8 9 10 11 13 14 15 16 18 19 20
12 12 11 10 11 11 11 10 9 8 8 8 8 9 8 8 8 7 7 6 6 6 6 5 5 5 5 6 6 6 6 7 8 8 9 10 12 13 14 15 17 18 19 20
13 12 12 11 11 11 11 10 9 8 9 9 9 9 8 8 8 8 7 7 7 7 6 6 6 5 5 5 6 6 6 7 8 9 10 11 12 14 15 17 18 20 20 21
14 14 13 12 12 11 11 10 9 9 10 10 10 9 9 9 9 8 8 8 8 7 7 7 6 5 5 5 6 7 7 8 8 9 11 12 13 15 16 18 19 20 21 22
14 14 14 13 12 12 12 11 10 10 10 10 10 10 10 10 10 9 8 8 8 8 8 8 7 7 7 7 7 8 8 8 9 10 11 12 13 15 16 18 19 21 22 23
16 16 15 14 14 13 13 12 11 11 11 11 11 11 11 11 11 10 9 9 9 9 8 8 8 8 8 8 8 8 8 8 9 10 11 13 14 15 16 18 20 21 22 23
16 16 16 15 15 14 13 12 12 12 12 13 12 12 12 11 11 11 10 10 9 9 8 8 8 8 8 8 8 8 8 8 9 10 12 13 15 16 17 18 20 22 23 24
16 16 15 15 15 15 14 14 13 14 14 14 14 13 13 12 11 11 11 10 10 9 9 8 8 8 8 8 8 8 8 9 9 11 12 14 15 16 17 19 20 22 23 25
17 17 17 16 16 16 16 15 15 15 15 15 15 14 13 13 12 12 11 11 10 10 10 9 8 8 8 7 8 8 9 9 10 11 12 14 15 16 17 19 21 22 24 25
18 18 18 17 17 17 16 16 16 16 16 15 15 14 14 13 12 12 11 11 10 11 10 9 9 9 8 8 8 9 9 10 10 11 13 14 15 17 18 20 21 23 24 25
19 19 19 18 18 17 17 17 17 17 16 16 15 14 13 12 12 12 11 11 10 10 10 9 9 9 9 9 9 9 9 10 11 11 13 14 16 17 19 21 22 24 25 26
21 20 20 19 18 18 17 17 17 17 16 16 15 14 13 12 12 11 11 11 11 10 10 10 9 9 9 9 9 9 10 10 11 12 13 15 16 18 19 21 22 24 25 26
22 21 20 20 19 18 18 17 17 16 16 16 15 14 13 12 12 11 11 11 11 10 10 10 10 9 9 9 9 10 10 10 11 12 13 15 17 18 19 21 22 24 25 25
23 22 21 20 20 19 19 18 17 16 16 15 15 14 14 13 12 12 11 11 11 10 10 10 10 10 10 10 10 9 10 10 10 11 13 15 16 18 19 20 22 23 24 25
Wind_Direction
323 317 304 310 326 320 303 299 291 299 303 305 313 312 313 313 315 313 310 308 302 298 294 293 291 284 281 280 281 283 289 293 294 295 294 296 295 297 302 301 300 299 303 305
322 323 311 312 321 310 303 304 305 304 313 310 309 313 315 317 318 316 313 308 304 301 294 292 289 281 277 275 280 285 290 294 295 296 298 301 302 301 300 301 302 307 312 313
329 326 327 321 317 301 295 299 301 307 315 314 314 313 314 317 321 320 316 312 309 304 299 295 292 286 279 276 279 284 290 294 296 298 299 305 305 304 304 306 309 315 318 319
335 322 327 331 313 302 300 305 308 309 309 311 312 314 316 320 324 325 321 317 315 310 303 298 291 286 281 280 283 284 288 294 301 305 305 308 310 309 312 314 316 318 319 320
336 334 328 320 311 304 300 302 318 322 312 311 311 316 317 321 324 326 326 324 320 318 313 308 300 296 290 289 291 295 299 303 304 303 307 315 320 317 319 322 322 322 323 323
320 326 327 325 318 310 306 307 320 322 323 319 315 319 322 324 324 326 328 327 325 322 317 318 316 314 309 312 313 311 312 316 320 317 316 321 322 324 324 326 326 327 328 327
318 322 325 326 325 319 314 315 321 320 322 324 323 327 328 330 331 331 333 334 334 332 329 331 331 330 327 324 320 319 321 326 327 331 331 327 324 326 329 330 331 331 331 332
310 317 323 319 322 320 321 322 322 319 318 324 326 325 329 333 335 336 338 340 331 328 340 347 352 356 352 343 337 338 335 334 335 333 334 332 329 330 331 331 333 333 333 332
302 312 321 320 318 317 321 324 327 324 322 323 323 324 328 331 336 339 345 345 343 336 339 350 356 355 352 349 345 345 338 339 338 336 335 334 333 333 333 334 335 335 335 334
301 306 314 315 320 316 318 320 326 326 324 327 328 327 329 333 336 340 346 347 347 339 336 342 345 343 344 349 352 354 344 340 341 340 338 337 337 337 337 337 337 337 337 337
295 299 302 307 313 312 312 317 317 317 320 326 330 329 331 334 334 335 342 347 351 349 344 339 340 345 347 349 353 350 344 342 342 339 337 337 338 340 341 341 341 341 340 339
297 296 301 303 303 304 305 310 314 315 311 314 320 325 328 326 329 330 338 345 349 351 348 348 354 354 348 344 345 342 338 340 341 341 340 339 341 341 341 341 340 341 341 340
294 294 296 297 298 299 301 304 305 305 306 307 314 319 321 324 329 331 332 338 340 338 340 336 345 348 345 341 344 344 342 342 342 342 341 341 342 341 340 340 339 341 342 342
293 293 295 295 297 298 298 297 295 293 296 299 305 311 315 317 319 320 319 323 329 325 322 315 319 332 337 340 340 339 342 344 340 338 339 341 341 341 341 341 342 342 342 341
289 290 293 291 294 296 295 292 287 288 289 292 297 303 306 307 306 304 304 309 315 315 313 311 310 316 326 332 337 339 341 345 347 345 344 345 344 343 344 344 345 344 343 342
284 284 287 287 288 289 290 286 281 284 287 290 294 297 301 304 302 296 293 296 300 304 304 302 303 308 316 325 331 334 340 345 349 349 349 349 350 350 350 350 350 349 348 347
284 284 284 284 283 283 284 284 282 284 288 289 290 289 293 297 299 296 289 288 292 295 296 295 294 299 308 317 323 326 330 336 341 342 344 346 348 348 347 347 347 348 347 347
284 283 281 280 280 280 280 282 283 284 288 288 289 288 288 291 292 293 288 286 289 290 290 288 284 286 291 300 310 316 323 330 336 338 340 343 344 345 346 347 347 347 347 347
281 279 277 275 275 277 277 277 278 282 283 283 284 287 289 289 286 285 285 286 287 287 284 283 278 282 289 296 304 309 315 326 333 336 339 341 343 344 345 346 346 347 347 347
280 277 273 274 275 276 275 275 277 278 280 281 283 286 289 288 286 281 279 281 286 285 282 279 276 279 285 290 296 303 312 322 329 335 338 340 343 343 344 345 345 345 345 345
278 274 272 272 273 273 272 273 273 274 276 278 280 283 284 283 283 279 276 277 279 280 276 275 275 277 280 287 294 303 310 320 328 332 335 338 340 341 343 344 345 345 345 345
277 273 272 272 272 271 269 269 270 272 273 274 276 277 278 278 279 277 272 269 271 273 274 270 268 272 277 287 296 303 309 316 322 327 331 336 339 340 341 343 344 344 344 345
275 271 270 271 271 269 266 265 267 269 270 271 272 274 275 275 276 273 269 268 268 271 271 263 263 268 275 282 291 301 307 314 319 324 329 334 339 342 342 342 343 344 344 345
274 271 269 268 268 266 263 262 263 264 266 266 268 270 270 271 271 269 268 267 266 267 267 261 261 266 272 276 284 293 301 309 316 322 328 333 337 339 340 341 341 343 343 344
271 270 268 266 265 263 261 259 258 260 260 261 263 264 266 267 267 264 263 265 265 266 267 262 259 263 271 278 282 288 295 302 309 318 325 330 334 337 339 341 341 341 342 343
266 266 264 262 260 260 259 257 256 257 255 256 258 261 263 265 265 263 258 258 261 262 264 261 256 262 269 277 283 287 293 298 306 315 321 326 331 336 339 340 340 341 343 344
262 262 262 261 258 257 257 256 254 253 253 253 253 253 256 259 260 258 254 255 258 261 263 260 257 263 268 274 280 284 291 299 307 315 320 326 333 336 338 339 340 342 345 346
Height
5795 5794 5793 5792 5792 5792 5791 5790 5790 5788 5787 5784 5783 5781 5778 5777 5776 5774 5773 5772 5771 5770 5768 5767 5766 5766 5766 5767 5767 5767 5767 5767 5766 5766 5765 5764 5763 5762 5760 5759 5758 5756 5754 5753
5794 5793 5791 5792 5791 5791 5790 5789 5788 5787 5785 5783 5781 5779 5778 5776 5774 5773 5771 5770 5768 5767 5765 5764 5764 5763 5763 5764 5764 5764 5764 5763 5763 5762 5762 5761 5760 5759 5757 5756 5755 5753 5751 5749
5794 5792 5792 5792 5791 5790 5789 5788 5786 5784 5783 5781 5779 5778 5776 5774 5772 5771 5769 5768 5766 5764 5763 5762 5761 5760 5760 5761 5761 5761 5761 5761 5760 5760 5759 5758 5757 5756 5755 5754 5752 5750 5748 5746
5793 5792 5791 5793 5790 5789 5787 5786 5784 5782 5781 5780 5778 5776 5774 5773 5771 5769 5767 5765 5764 5762 5760 5759 5759 5758 5758 5758 5759 5759 5759 5758 5758 5757 5757 5756 5755 5754 5753 5751 5750 5748 5745 5743
5792 5790 5790 5790 5789 5788 5786 5784 5782 5781 5780 5778 5777 5776 5774 5772 5770 5768 5766 5764 5762 5761 5760 5759 5758 5757 5757 5757 5757 5757 5757 5756 5756 5755 5754 5754 5753 5752 5751 5749 5747 5745 5743 5740
5791 5790 5790 5790 5787 5785 5786 5784 5782 5780 5779 5777 5776 5775 5774 5771 5769 5767 5765 5763 5762 5760 5759 5758 5757 5756 5756 5756 5756 5756 5755 5755 5754 5753 5753 5752 5752 5751 5749 5747 5745 5743 5740 5738
5791 5789 5788 5788 5786 5785 5785 5783 5781 5779 5778 5776 5775 5774 5772 5770 5768 5766 5765 5763 5762 5760 5759 5758 5757 5756 5756 5756 5755 5755 5755 5754 5753 5753 5752 5751 5750 5749 5747 5745 5743 5740 5738 5735
5790 5789 5789 5787 5786 5785 5783 5781 5779 5779 5777 5776 5774 5773 5771 5769 5767 5766 5764 5763 5761 5760 5758 5757 5756 5756 5756 5755 5755 5755 5754 5753 5753 5752 5751 5750 5749 5748 5746 5744 5741 5739 5736 5733
5789 5790 5787 5786 5784 5783 5781 5780 5779 5778 5777 5775 5773 5772 5771 5769 5767 5766 5764 5763 5762 5760 5759 5758 5757 5757 5756 5756 5755 5754 5754 5753 5752 5751 5750 5749 5748 5746 5744 5742 5739 5737 5734 5731
5787 5787 5786 5784 5783 5782 5781 5780 5779 5777 5776 5774 5773 5772 5770 5769 5767 5766 5765 5763 5762 5761 5760 5759 5758 5757 5756 5756 5755 5754 5754 5753 5752 5751 5749 5748 5747 5745 5742 5740 5738 5735 5732 5728
5786 5786 5785 5784 5782 5781 5780 5779 5778 5777 5775 5774 5773 5772 5770 5769 5767 5766 5765 5764 5762 5761 5760 5759 5758 5758 5757 5756 5755 5755 5754 5753 5751 5750 5749 5747 5745 5743 5741 5739 5736 5733 5730 5726
5784 5784 5783 5782 5781 5780 5779 5778 5777 5776 5775 5773 5772 5771 5770 5768 5767 5766 5765 5764 5763 5761 5760 5759 5759 5758 5757 5756 5756 5755 5754 5752 5751 5750 5748 5746 5744 5742 5740 5738 5735 5732 5728 5724
5782 5782 5781 5780 5779 5778 5777 5777 5775 5774 5773 5772 5772 5771 5769 5768 5767 5766 5765 5764 5763 5762 5761 5760 5759 5758 5757 5756 5755 5754 5753 5752 5751 5749 5748 5746 5744 5741 5739 5737 5733 5730 5726 5722
5780 5779 5779 5778 5777 5776 5775 5774 5774 5773 5772 5771 5770 5769 5768 5767 5766 5765 5764 5764 5763 5761 5761 5760 5759 5758 5757 5756 5755 5754 5753 5752 5750 5749 5747 5745 5743 5740 5738 5735 5732 5728 5725 5721
5777 5776 5776 5775 5775 5774 5773 5772 5772 5771 5770 5770 5769 5768 5767 5766 5765 5765 5764 5763 5762 5761 5760 5759 5759 5758 5757 5756 5755 5754 5752 5751 5750 5748 5746 5744 5742 5739 5737 5734 5730 5726 5723 5719
5774 5773 5773 5773 5772 5772 5771 5770 5770 5769 5768 5768 5767 5766 5765 5764 5764 5763 5762 5762 5761 5760 5759 5758 5758 5757 5756 5755 5754 5753 5752 5751 5749 5747 5746 5743 5741 5738 5735 5732 5729 5725 5721 5717
5771 5771 5770 5770 5769 5769 5768 5768 5767 5767 5766 5765 5765 5764 5763 5762 5762 5761 5760 5760 5759 5758 5758 5757 5757 5756 5755 5755 5754 5753 5751 5750 5748 5747 5745 5742 5740 5737 5734 5731 5727 5723 5720 5715
5767 5767 5766 5766 5766 5766 5765 5765 5764 5764 5763 5763 5762 5761 5761 5760 5759 5759 5757 5757 5757 5757 5756 5756 5755 5755 5754 5753 5752 5751 5750 5748 5747 5745 5743 5741 5739 5736 5733 5730 5726 5722 5718 5714
5763 5763 5762 5762 5762 5762 5762 5762 5761 5761 5760 5760 5759 5759 5758 5757 5757 5756 5756 5755 5755 5755 5754 5753 5753 5753 5752 5751 5751 5750 5749 5747 5746 5744 5742 5740 5737 5735 5732 5728 5725 5721 5717 5712
5759 5759 5759 5758 5758 5758 5758 5758 5758 5757 5757 5756 5756 5755 5755 5754 5753 5753 5753 5753 5752 5752 5752 5751 5751 5751 5750 5750 5749 5748 5747 5746 5744 5743 5741 5738 5736 5733 5730 5727 5723 5719 5715 5711
5754 5754 5754 5754 5754 5754 5754 5754 5754 5754 5753 5753 5752 5752 5751 5750 5750 5750 5750 5750 5750 5749 5749 5749 5749 5749 5748 5748 5747 5746 5746 5744 5743 5741 5739 5737 5734 5731 5728 5725 5721 5718 5714 5709
5749 5749 5750 5750 5749 5749 5749 5749 5749 5749 5749 5748 5748 5748 5747 5747 5747 5746 5746 5746 5746 5746 5746 5746 5746 5746 5746 5746 5745 5745 5744 5743 5741 5739 5737 5735 5733 5730 5727 5723 5720 5716 5712 5707
5744 5744 5744 5744 5744 5744 5744 5744 5744 5744 5744 5744 5744 5744 5743 5743 5743 5742 5742 5743 5743 5743 5743 5743 5744 5744 5744 5744 5744 5743 5742 5741 5739 5738 5736 5733 5731 5728 5725 5721 5718 5714 5709 5705
5738 5738 5739 5739 5739 5739 5739 5739 5739 5739 5739 5740 5740 5739 5739 5739 5739 5739 5739 5739 5739 5740 5740 5741 5741 5741 5741 5741 5741 5741 5740 5739 5737 5736 5733 5731 5729 5726 5723 5719 5716 5712 5707 5703
5732 5732 5732 5733 5733 5733 5733 5734 5734 5734 5734 5735 5735 5735 5735 5736 5736 5735 5736 5736 5736 5737 5737 5738 5738 5738 5739 5739 5738 5738 5737 5736 5735 5733 5732 5729 5727 5724 5720 5717 5713 5709 5705 5700
5725 5726 5726 5726 5727 5727 5728 5728 5728 5729 5730 5730 5731 5731 5731 5732 5732 5732 5732 5733 5733 5734 5734 5735 5735 5736 5736 5735 5735 5735 5734 5733 5732 5731 5729 5727 5724 5721 5718 5715 5711 5707 5702 5697
5718 5718 5719 5720 5721 5721 5722 5723 5723 5724 5725 5726 5727 5727 5728 5728 5729 5729 5730 5730 5730 5731 5731 5731 5732 5732 5732 5732 5732 5732 5731 5730 5729 5728 5726 5724 5722 5719 5716 5712 5708 5704 5700 5695